• en Suisse
  • Liste des pays
  • À 7 jours
  • Température de l'eau
  • Carte satellitaire
  • Carte météo
  • Widgets météo
  • user-avatar
    Se connecter

    Météo par heure à Kanton

    Ce jour, 19 Septembre, Mercredi

    Heure Température Précipitation Vent Pression Humidité
    00:00 +15°C° 0 mm 2 m/s 739 mmHg 72%
    01:00 +14°C° 0 mm 2 m/s 738 mmHg 74%
    02:00 +14°C° 0.1 mm 2 m/s 737 mmHg 74%
    03:00 +14°C° 0.1 mm 2 m/s 737 mmHg 73%
    04:00 +14°C° 0.1 mm 2 m/s 736 mmHg 73%
    05:00 +14°C° 0.1 mm 2 m/s 735 mmHg 75%
    06:00 +14°C° 0.1 mm 2 m/s 735 mmHg 77%
    07:00 +14°C° 0.1 mm 2 m/s 734 mmHg 79%
    08:00 +14°C° 0.2 mm 2 m/s 734 mmHg 78%
    09:00 +15°C° 0.2 mm 2 m/s 734 mmHg 77%
    10:00 +16°C° 0.2 mm 2 m/s 733 mmHg 76%
    11:00 +14°C° 0.7 mm 3 m/s 733 mmHg 81%
    12:00 +12°C° 0.7 mm 4 m/s 733 mmHg 85%
    13:00 +10°C° 0.7 mm 5 m/s 733 mmHg 90%
    14:00 +9°C° 0.3 mm 5 m/s 734 mmHg 91%
    15:00 +9°C° 0.3 mm 5 m/s 734 mmHg 91%
    16:00 +8°C° 0.3 mm 5 m/s 734 mmHg 92%
    17:00 +8°C° 0.1 mm 4 m/s 735 mmHg 92%
    18:00 +8°C° 0.1 mm 4 m/s 735 mmHg 92%
    19:00 +8°C° 0.1 mm 4 m/s 736 mmHg 92%
    20:00 +8°C° 0 mm 4 m/s 736 mmHg 93%
    21:00 +9°C° 0 mm 3 m/s 736 mmHg 93%
    22:00 +9°C° 0 mm 3 m/s 736 mmHg 94%
    23:00 +9°C° 0.1 mm 3 m/s 736 mmHg 94%

    Demain, 20 Septembre, Jeudi

    Heure Température Précipitation Vent Pression Humidité
    00:00 +9°C° 0.1 mm 3 m/s 737 mmHg 94%
    01:00 +9°C° 0.1 mm 3 m/s 737 mmHg 94%
    02:00 +9°C° 0.2 mm 3 m/s 737 mmHg 94%
    03:00 +9°C° 0.2 mm 3 m/s 737 mmHg 95%
    04:00 +9°C° 0.2 mm 3 m/s 737 mmHg 95%
    05:00 +9°C° 0.3 mm 3 m/s 737 mmHg 95%
    06:00 +9°C° 0.3 mm 3 m/s 737 mmHg 95%
    07:00 +9°C° 0.3 mm 3 m/s 738 mmHg 95%
    08:00 +9°C° 0.2 mm 3 m/s 738 mmHg 94%
    09:00 +8°C° 0.2 mm 4 m/s 738 mmHg 93%
    10:00 +8°C° 0.2 mm 4 m/s 739 mmHg 92%
    11:00 +8°C° 0.2 mm 4 m/s 739 mmHg 92%
    12:00 +8°C° 0.2 mm 4 m/s 740 mmHg 91%
    13:00 +8°C° 0.2 mm 4 m/s 740 mmHg 91%
    14:00 +8°C° 0.2 mm 4 m/s 740 mmHg 91%
    15:00 +8°C° 0.2 mm 4 m/s 741 mmHg 91%
    16:00 +9°C° 0.2 mm 3 m/s 741 mmHg 91%
    17:00 +9°C° 0.1 mm 3 m/s 741 mmHg 92%
    18:00 +8°C° 0.1 mm 3 m/s 741 mmHg 93%
    19:00 +8°C° 0.1 mm 3 m/s 741 mmHg 94%
    20:00 +8°C° 0.1 mm 3 m/s 741 mmHg 94%
    21:00 +8°C° 0.1 mm 3 m/s 741 mmHg 94%
    22:00 +8°C° 0.1 mm 3 m/s 741 mmHg 95%
    23:00 +8°C° 0.1 mm 3 m/s 741 mmHg 95%

    Après-demain, 21 Septembre, Vendredi

    Heure Température Précipitation Vent Pression Humidité
    00:00 +8°C° 0.1 mm 3 m/s 741 mmHg 95%
    01:00 +8°C° 0.1 mm 3 m/s 741 mmHg 95%
    02:00 +8°C° 0.1 mm 3 m/s 742 mmHg 95%
    03:00 +8°C° 0.1 mm 3 m/s 742 mmHg 94%
    04:00 +8°C° 0.1 mm 3 m/s 742 mmHg 94%
    05:00 +8°C° 0.1 mm 3 m/s 742 mmHg 94%
    06:00 +7°C° 0.1 mm 4 m/s 742 mmHg 94%
    07:00 +7°C° 0.1 mm 4 m/s 743 mmHg 93%
    08:00 +7°C° 0.1 mm 4 m/s 743 mmHg 92%
    09:00 +7°C° 0.1 mm 4 m/s 744 mmHg 91%
    10:00 +8°C° 0.1 mm 4 m/s 744 mmHg 90%
    11:00 +8°C° 0 mm 4 m/s 744 mmHg 89%
    12:00 +10°C° 0 mm 4 m/s 744 mmHg 87%
    13:00 +10°C° 0 mm 4 m/s 745 mmHg 86%
    14:00 +10°C° 0 mm 4 m/s 745 mmHg 86%
    15:00 +10°C° 0 mm 3 m/s 745 mmHg 86%
    16:00 +11°C° 0 mm 3 m/s 746 mmHg 85%
    17:00 +10°C° 0 mm 3 m/s 746 mmHg 87%
    18:00 +10°C° 0 mm 2 m/s 747 mmHg 88%
    19:00 +10°C° 0 mm 2 m/s 747 mmHg 89%
    20:00 +9°C° 0 mm 2 m/s 747 mmHg 91%
    21:00 +9°C° 0 mm 2 m/s 748 mmHg 92%
    22:00 +8°C° 0 mm 2 m/s 748 mmHg 94%
    23:00 +8°C° 0 mm 2 m/s 748 mmHg 94%

    22 Septembre, Samedi

    Heure Température Précipitation Vent Pression Humidité
    00:00 +7°C° 0 mm 2 m/s 748 mmHg 95%
    01:00 +7°C° 0 mm 2 m/s 749 mmHg 95%
    02:00 +7°C° 0 mm 1 m/s 749 mmHg 95%
    03:00 +7°C° 0 mm 1 m/s 749 mmHg 95%
    04:00 +6°C° 0 mm 1 m/s 750 mmHg 95%
    05:00 +7°C° 0 mm 1 m/s 750 mmHg 95%
    06:00 +7°C° 0 mm 1 m/s 751 mmHg 94%
    07:00 +7°C° 0 mm 1 m/s 751 mmHg 93%
    08:00 +8°C° 0 mm 2 m/s 751 mmHg 88%
    09:00 +9°C° 0 mm 2 m/s 751 mmHg 84%
    10:00 +12°C° 0 mm 2 m/s 751 mmHg 79%
    11:00 +12°C° 0 mm 3 m/s 751 mmHg 80%
    12:00 +13°C° 0 mm 3 m/s 751 mmHg 81%
    13:00 +14°C° 0 mm 3 m/s 751 mmHg 82%
    14:00 +14°C° 0 mm 3 m/s 751 mmHg 83%
    15:00 +14°C° 0 mm 3 m/s 751 mmHg 84%
    16:00 +16°C° 0 mm 3 m/s 751 mmHg 85%
    17:00 +14°C° 0 mm 3 m/s 751 mmHg 88%
    18:00 +14°C° 0 mm 2 m/s 751 mmHg 91%
    19:00 +14°C° 0 mm 2 m/s 751 mmHg 95%
    20:00 +13°C° 0 mm 2 m/s 751 mmHg 95%
    21:00 +13°C° 0 mm 2 m/s 751 mmHg 96%
    22:00 +12°C° 0 mm 2 m/s 751 mmHg 96%
    23:00 +13°C° 0 mm 2 m/s 751 mmHg 97%

    23 Septembre, Dimanche

    Heure Température Précipitation Vent Pression Humidité
    00:00 +13°C° 0 mm 1 m/s 751 mmHg 97%
    01:00 +13°C° 0 mm 1 m/s 751 mmHg 97%
    02:00 +13°C° 0.2 mm 1 m/s 751 mmHg 97%
    03:00 +13°C° 0.2 mm 1 m/s 751 mmHg 98%
    04:00 +13°C° 0.2 mm 1 m/s 751 mmHg 98%
    05:00 +13°C° 0.1 mm 1 m/s 751 mmHg 98%
    06:00 +13°C° 0.1 mm 1 m/s 751 mmHg 98%
    07:00 +14°C° 0.1 mm 1 m/s 751 mmHg 98%
    08:00 +14°C° 0 mm 1 m/s 751 mmHg 96%
    09:00 +15°C° 0 mm 1 m/s 751 mmHg 94%
    10:00 +16°C° 0 mm 2 m/s 751 mmHg 92%
    11:00 +17°C° 0 mm 2 m/s 751 mmHg 89%
    12:00 +18°C° 0 mm 2 m/s 751 mmHg 85%
    13:00 +19°C° 0 mm 2 m/s 751 mmHg 82%
    14:00 +19°C° 0 mm 3 m/s 751 mmHg 80%
    15:00 +20°C° 0 mm 3 m/s 751 mmHg 78%
    16:00 +20°C° 0 mm 3 m/s 750 mmHg 77%
    17:00 +19°C° 0 mm 2 m/s 751 mmHg 82%
    18:00 +17°C° 0 mm 2 m/s 751 mmHg 88%
    19:00 +15°C° 0 mm 1 m/s 751 mmHg 93%
    20:00 +15°C° 0 mm 1 m/s 751 mmHg 94%
    21:00 +15°C° 0 mm 1 m/s 751 mmHg 94%
    22:00 +14°C° 0 mm 1 m/s 751 mmHg 95%
    23:00 +14°C° 0 mm 1 m/s 751 mmHg 95%

    24 Septembre, Lundi

    Heure Température Précipitation Vent Pression Humidité
    00:00 +13°C° 0 mm 1 m/s 751 mmHg 95%
    01:00 +13°C° 0 mm 1 m/s 751 mmHg 96%
    02:00 +13°C° 0 mm 1 m/s 751 mmHg 96%
    03:00 +13°C° 0 mm 1 m/s 751 mmHg 96%
    04:00 +12°C° 0 mm 1 m/s 751 mmHg 97%
    05:00 +12°C° 0 mm 1 m/s 751 mmHg 97%
    06:00 +13°C° 0 mm 2 m/s 751 mmHg 97%
    07:00 +13°C° 0 mm 2 m/s 751 mmHg 98%
    08:00 +14°C° 0 mm 2 m/s 751 mmHg 93%
    09:00 +16°C° 0 mm 2 m/s 751 mmHg 89%
    10:00 +17°C° 0 mm 2 m/s 751 mmHg 84%
    11:00 +18°C° 0 mm 3 m/s 751 mmHg 79%
    12:00 +20°C° 0 mm 3 m/s 751 mmHg 74%
    13:00 +21°C° 0 mm 3 m/s 751 mmHg 68%
    14:00 +21°C° 0 mm 3 m/s 751 mmHg 68%
    15:00 +21°C° 0 mm 3 m/s 751 mmHg 68%
    16:00 +21°C° 0 mm 3 m/s 751 mmHg 68%
    17:00 +19°C° 0 mm 2 m/s 751 mmHg 76%
    18:00 +18°C° 0 mm 2 m/s 751 mmHg 83%
    19:00 +16°C° 0 mm 2 m/s 751 mmHg 90%
    20:00 +16°C° 0 mm 2 m/s 751 mmHg 91%
    21:00 +15°C° 0 mm 2 m/s 751 mmHg 91%
    22:00 +15°C° 0 mm 2 m/s 751 mmHg 92%
    23:00 +14°C° 0 mm 2 m/s 751 mmHg 92%
    Voir plus